Location: Alfortville
(48.8058°N, 2.4204°E)
Time: 05:12:02
(UTC+00:00)

USA 229 DEB - Pass Details

Date: 06 June 2022
Orbit: 934 x 1278 km, 63.4° (Epoch: 24 May)

Event Time Altitude Azimuth Distance (km) Brightness Sun altitude
Rises 23:26:37 0° 310° (NW) 4,029 7.4 -18.3°
Reaches altitude 10° 23:30:07 10° 294° (WNW) 3,121 6.5 -18.3°
Maximum altitude 23:35:06 19° 252° (WSW) 2,542 5.5 -18.4°
Enters shadow 23:38:35 14° 221° (SW) 2,890 5.5 -18.4°
